TITAN 3C TRANSTAGE DEB, 1915

Orbit data source: Space-Track

TITAN 3C TRANSTAGE DEB, 1915 is space debris in LEO originally from a launch on Fri, 15 Oct 1965 UTC launched from the Air Force Eastern Test Range (AFETR). Debris objects in space refer to the collection of defunct objects orbiting the Earth. Examples of debris include non-operational satellites, rocket bodies, and fragments generated from explosions, collisions, or faulty payload assembly.

Loading next visibility...
Identifier
1915, 1965-082FZ
Orbit
LEO
Last TLE update
14 hours ago
Origin
Manufacturer
Unknown
Mission
Spacecraft
Bus & Motor
Unknown
Mass
Unknown
Launch date (UTC)
1965-10-15 (60 years ago)
Launch vehicle
Unknown
Launch site
Air Force Eastern Test Range (AFETR)
Object type
Payload
Rocket body
Debris
Shape & HBR
Unknown
Radar Cross Section
Small (<0.1 m²)

Expand to show TLE details & history

TLE from 14 hours ago
0 TITAN 3C TRANSTAGE DEB
1 01915U 65082FZ  25199.93907786  .00000383  00000-0  72436-4 0  9992
2 01915  31.8771  95.8899 0028922 147.2504 212.9934 14.58086646166741
Epoch: 2025-07-18T22:32Z
TLE epoch observation values (Epoch: 2025-07-18T22:32:16.327Z)
Latitude
-0°
Longitude
-179.16148°
Altitude
715.168 km
Speed
7.491 km/s
True Right ascension
06h 23m 33s
True Declination
0° 00' 00"
Sunlit
Object was in daylight at epoch
Visualization orbit readout
Latitude
32.01403°
Longitude
-93.20417°
Altitude
689.801 km
Speed
7.522 km/s
Apparent Right ascension
12h 28m 51s
Apparent Declination
-1° 48' 53"
Sunlit
Object is in daylight
Visualization observer readout
Local Sidereal Time
00:55:10
Azimuth
10.583° NNE
Elevation
-51.433°
Doppler factor
1
Orbital elements
Apogee altitude
723.464 km
Perigee altitude
682.504 km
Semi-major axis
7,081.121 km
Eccentricity
0.00289
Inclination
31.8771°
RAAN
95.8899°
Arg. of periapsis
147.2504°
True anomaly
212.81347°
Mean anomaly
212.9934°
Eccentric anomaly
212.90338°
Mean motion
3.64242 °/min
Orbital period
98.84 mins
BSTAR
0.000072436
Loading maneuver chart data...
Loading SW <> Apogee altitude chart data...
|